EZY21A EGPH-EGCC

Flight info

Callsign EZY21A
Flight time 0h 30m
Altitude 25000
Route GOSAM P600 FENIK L612 LAKEY
Aircraft A320/M-SDE3FGHIRWY/LB1

Departure

Time 2026-04-24 13:36
Airport Edinburgh Airport (EGPH)

Arrival

Time 2026-04-24 14:06
Airport Manchester Airport (EGCC)
Time Latitude Longitude Altitude Speed Heading
2026-04-24 13:03 55.95020 -3.36070 113 ft 0 kts 248°
2026-04-24 13:03 55.94797 -3.35684 112 ft 0 kts 208°
2026-04-24 13:04 55.95014 -3.36027 112 ft 0 kts 244°
2026-04-24 13:22 55.95015 -3.36025 116 ft 2 kts 244°
2026-04-24 13:23 55.95026 -3.35985 113 ft 4 kts 244°
2026-04-24 13:23 55.95035 -3.35950 112 ft 3 kts 243°
2026-04-24 13:23 55.95047 -3.35909 112 ft 4 kts 243°
2026-04-24 13:23 55.95054 -3.35868 112 ft 4 kts 291°
2026-04-24 13:24 55.95058 -3.35877 112 ft 4 kts 299°
2026-04-24 13:24 55.95071 -3.35920 112 ft 4 kts 298°
2026-04-24 13:24 55.95073 -3.35928 113 ft 0 kts 298°
2026-04-24 13:27 55.95089 -3.35981 113 ft 7 kts 295°
2026-04-24 13:27 55.95107 -3.36078 115 ft 9 kts 288°
2026-04-24 13:27 55.95130 -3.36153 116 ft 10 kts 320°
2026-04-24 13:28 55.95186 -3.36124 114 ft 9 kts 52°
2026-04-24 13:28 55.95224 -3.36016 113 ft 12 kts 59°
2026-04-24 13:28 55.95274 -3.35867 115 ft 15 kts 59°
2026-04-24 13:28 55.95331 -3.35699 115 ft 17 kts 58°
2026-04-24 13:29 55.95352 -3.35638 114 ft 1 kts 58°
2026-04-24 13:29 55.95357 -3.35614 115 ft 5 kts 72°
2026-04-24 13:29 55.95361 -3.35532 116 ft 7 kts 88°
2026-04-24 13:29 55.95365 -3.35455 116 ft 5 kts 75°
2026-04-24 13:30 55.95380 -3.35400 115 ft 7 kts 61°
2026-04-24 13:30 55.95427 -3.35392 115 ft 9 kts 288°
2026-04-24 13:30 55.95399 -3.35499 113 ft 14 kts 238°
2026-04-24 13:30 55.95338 -3.35678 115 ft 20 kts 239°
2026-04-24 13:31 55.95262 -3.35903 113 ft 21 kts 239°
2026-04-24 13:31 55.95188 -3.36123 114 ft 21 kts 239°
2026-04-24 13:31 55.95113 -3.36346 113 ft 20 kts 239°
2026-04-24 13:31 55.95042 -3.36555 114 ft 19 kts 239°
2026-04-24 13:32 55.94970 -3.36767 113 ft 24 kts 238°
2026-04-24 13:32 55.94870 -3.37061 114 ft 29 kts 239°
2026-04-24 13:32 55.94762 -3.37379 112 ft 30 kts 239°
2026-04-24 13:32 55.94652 -3.37702 115 ft 31 kts 239°
2026-04-24 13:33 55.94538 -3.38040 114 ft 32 kts 239°
2026-04-24 13:33 55.94421 -3.38386 113 ft 33 kts 239°
2026-04-24 13:33 55.94322 -3.38677 115 ft 26 kts 238°
2026-04-24 13:33 55.94286 -3.38848 115 ft 12 kts 292°
2026-04-24 13:34 55.94320 -3.38902 113 ft 0 kts 328°
2026-04-24 13:34 55.94326 -3.38909 115 ft 6 kts 328°
2026-04-24 13:34 55.94419 -3.38938 112 ft 18 kts 36°
2026-04-24 13:35 55.94491 -3.38751 112 ft 20 kts 58°
2026-04-24 13:35 55.94611 -3.38399 112 ft 62 kts 58°
2026-04-24 13:35 55.94950 -3.37405 111 ft 123 kts 59°
2026-04-24 13:35 55.95455 -3.35951 484 ft 136 kts 57°
2026-04-24 13:36 55.95956 -3.34529 1124 ft 136 kts 57°
2026-04-24 13:36 55.96486 -3.33060 1670 ft 145 kts 56°
2026-04-24 13:36 55.97225 -3.31743 2056 ft 160 kts 33°
2026-04-24 13:36 55.98196 -3.30550 2499 ft 178 kts 33°
2026-04-24 13:37 55.99256 -3.29164 2883 ft 200 kts 35°
2026-04-24 13:37 56.00584 -3.28152 3244 ft 220 kts
2026-04-24 13:37 56.02115 -3.28758 3624 ft 239 kts 325°
2026-04-24 13:37 56.03178 -3.31102 4136 ft 254 kts 287°
2026-04-24 13:38 56.03256 -3.34256 4938 ft 260 kts 261°
2026-04-24 13:38 56.02880 -3.37451 5698 ft 266 kts 256°
2026-04-24 13:38 56.02402 -3.40606 5943 ft 266 kts 255°
2026-04-24 13:38 56.01883 -3.43830 6004 ft 266 kts 254°
2026-04-24 13:39 56.01375 -3.47010 6010 ft 266 kts 255°
2026-04-24 13:39 56.00888 -3.50158 6012 ft 266 kts 255°
2026-04-24 13:39 56.00410 -3.53358 6009 ft 266 kts 256°
2026-04-24 13:39 55.99944 -3.56566 6011 ft 266 kts 256°
2026-04-24 13:40 55.99487 -3.59773 6009 ft 266 kts 256°
2026-04-24 13:40 55.99032 -3.62974 6007 ft 266 kts 256°
2026-04-24 13:40 55.98576 -3.66179 6003 ft 266 kts 256°
2026-04-24 13:40 55.98119 -3.69382 6003 ft 266 kts 256°
2026-04-24 13:41 55.97658 -3.72586 6000 ft 266 kts 256°
2026-04-24 13:41 55.97195 -3.75788 5987 ft 266 kts 256°
2026-04-24 13:41 55.96731 -3.78990 5989 ft 266 kts 256°
2026-04-24 13:41 55.96267 -3.82189 5989 ft 266 kts 256°
2026-04-24 13:42 55.95802 -3.85383 5990 ft 266 kts 256°
2026-04-24 13:42 55.95337 -3.88581 5991 ft 266 kts 256°
2026-04-24 13:42 55.94871 -3.91781 5992 ft 266 kts 256°
2026-04-24 13:42 55.94408 -3.94955 6249 ft 270 kts 256°
2026-04-24 13:43 55.93857 -3.98162 7184 ft 271 kts 248°
2026-04-24 13:43 55.92988 -4.01166 8061 ft 275 kts 238°
2026-04-24 13:43 55.91787 -4.03856 8921 ft 279 kts 227°
2026-04-24 13:43 55.90332 -4.06086 9131 ft 273 kts 216°
2026-04-24 13:44 55.88717 -4.08025 9543 ft 285 kts 216°
2026-04-24 13:44 55.87083 -4.10003 10390 ft 288 kts 216°
2026-04-24 13:44 55.85389 -4.12072 10832 ft 306 kts 216°
2026-04-24 13:44 55.83568 -4.14304 11057 ft 330 kts 216°
2026-04-24 13:45 55.81620 -4.16691 11369 ft 347 kts 216°
2026-04-24 13:45 55.79611 -4.19148 12000 ft 354 kts 216°
2026-04-24 13:45 55.77570 -4.21650 12708 ft 358 kts 216°
2026-04-24 13:45 55.75458 -4.24009 13405 ft 363 kts 207°
2026-04-24 13:46 55.73064 -4.25518 14109 ft 369 kts 193°
2026-04-24 13:46 55.70492 -4.25935 14719 ft 375 kts 179°
2026-04-24 13:46 55.65888 -4.23749 15823 ft 383 kts 155°
2026-04-24 13:46 55.61126 -4.19277 17098 ft 388 kts 150°
2026-04-24 13:47 55.56421 -4.14481 18317 ft 393 kts 150°
2026-04-24 13:47 55.51626 -4.09677 19374 ft 398 kts 151°
2026-04-24 13:47 55.46744 -4.04922 20376 ft 404 kts 152°
2026-04-24 13:47 55.41851 -4.00216 21351 ft 408 kts 151°
2026-04-24 13:48 55.36850 -3.95372 22284 ft 413 kts 150°
2026-04-24 13:48 55.31815 -3.90494 23189 ft 419 kts 151°
2026-04-24 13:48 55.26663 -3.85549 24035 ft 424 kts 151°
2026-04-24 13:48 55.21439 -3.80553 24714 ft 431 kts 150°
2026-04-24 13:49 55.16145 -3.75491 25282 ft 437 kts 150°
2026-04-24 13:49 55.10748 -3.70338 25301 ft 444 kts 150°
2026-04-24 13:49 55.05323 -3.65192 25309 ft 444 kts 150°
2026-04-24 13:49 54.99892 -3.60056 25311 ft 444 kts 150°
2026-04-24 13:50 54.94457 -3.54923 25316 ft 444 kts 150°
2026-04-24 13:50 54.89033 -3.49813 25322 ft 443 kts 150°
2026-04-24 13:50 54.83617 -3.44724 25318 ft 443 kts 150°
2026-04-24 13:50 54.78175 -3.39647 25318 ft 443 kts 150°
2026-04-24 13:51 54.72745 -3.34594 25320 ft 443 kts 151°
2026-04-24 13:51 54.67187 -3.29976 25316 ft 444 kts 155°
2026-04-24 13:51 54.61491 -3.25866 25313 ft 444 kts 156°
2026-04-24 13:51 54.55789 -3.21787 25310 ft 443 kts 156°
2026-04-24 13:52 54.50216 -3.17663 24836 ft 439 kts 155°
2026-04-24 13:52 54.44638 -3.13465 24366 ft 436 kts 155°
2026-04-24 13:52 54.39092 -3.09332 23611 ft 432 kts 155°
2026-04-24 13:52 54.33611 -3.05277 22338 ft 424 kts 156°
2026-04-24 13:53 54.28249 -3.01325 21188 ft 415 kts 156°
2026-04-24 13:53 54.23081 -2.97212 20116 ft 405 kts 148°
2026-04-24 13:53 54.18346 -2.91873 18647 ft 408 kts 147°
2026-04-24 13:53 54.13610 -2.86552 17175 ft 406 kts 147°
2026-04-24 13:54 54.08891 -2.81285 15764 ft 405 kts 147°
2026-04-24 13:54 54.04190 -2.76035 14512 ft 400 kts 147°
2026-04-24 13:54 53.99522 -2.70843 13181 ft 395 kts 147°
2026-04-24 13:54 53.94982 -2.65813 12310 ft 379 kts 147°
2026-04-24 13:55 53.90737 -2.61116 12047 ft 350 kts 147°
2026-04-24 13:55 53.86811 -2.56782 11793 ft 325 kts 147°
2026-04-24 13:55 53.83149 -2.52750 11499 ft 306 kts 147°
2026-04-24 13:55 53.80849 -2.50216 11027 ft 301 kts 147°
2026-04-24 13:56 53.79097 -2.48291 10493 ft 300 kts 147°
2026-04-24 13:56 53.77351 -2.46375 9945 ft 298 kts 147°
2026-04-24 13:56 53.75616 -2.44471 9390 ft 296 kts 147°
2026-04-24 13:56 53.73896 -2.42583 8858 ft 293 kts 147°
2026-04-24 13:57 53.72199 -2.40725 8325 ft 289 kts 147°
2026-04-24 13:57 53.70527 -2.38898 7922 ft 281 kts 147°
2026-04-24 13:57 53.68939 -2.37167 7725 ft 265 kts 147°
2026-04-24 13:57 53.67410 -2.35481 7382 ft 260 kts 143°
2026-04-24 13:58 53.66106 -2.33421 7124 ft 255 kts 130°
2026-04-24 13:58 53.64959 -2.31176 6913 ft 251 kts 131°
2026-04-24 13:58 53.63815 -2.28959 6681 ft 250 kts 131°
2026-04-24 13:58 53.62674 -2.26761 6439 ft 248 kts 131°
2026-04-24 13:59 53.61539 -2.24582 6204 ft 247 kts 131°
2026-04-24 13:59 53.60403 -2.22405 5973 ft 247 kts 131°
2026-04-24 13:59 53.59273 -2.20239 5738 ft 246 kts 131°
2026-04-24 13:59 53.58153 -2.18086 5499 ft 243 kts 131°
2026-04-24 14:00 53.57030 -2.15926 5059 ft 247 kts 131°
2026-04-24 14:00 53.55906 -2.13766 4745 ft 243 kts 130°
2026-04-24 14:00 53.54814 -2.11674 4603 ft 233 kts 130°
2026-04-24 14:00 53.53779 -2.09696 4402 ft 220 kts 131°
2026-04-24 14:01 53.52792 -2.07813 4261 ft 217 kts 131°
2026-04-24 14:01 53.51792 -2.05904 4140 ft 218 kts 131°
2026-04-24 14:01 53.50785 -2.03979 4035 ft 219 kts 131°
2026-04-24 14:01 53.49661 -2.02410 3933 ft 205 kts 158°
2026-04-24 14:02 53.48277 -2.02132 3835 ft 202 kts 192°
2026-04-24 14:02 53.47053 -2.03204 3680 ft 201 kts 225°
2026-04-24 14:02 53.46159 -2.05003 3426 ft 201 kts 231°
2026-04-24 14:02 53.45303 -2.06825 3156 ft 197 kts 230°
2026-04-24 14:03 53.44459 -2.08600 2901 ft 190 kts 230°
2026-04-24 14:03 53.43663 -2.10266 2657 ft 177 kts 229°
2026-04-24 14:03 53.42930 -2.11794 2439 ft 161 kts 230°
2026-04-24 14:03 53.42249 -2.13213 2206 ft 151 kts 229°
2026-04-24 14:04 53.41602 -2.14561 2020 ft 147 kts 230°
2026-04-24 14:04 53.40966 -2.15883 1820 ft 145 kts 230°
2026-04-24 14:04 53.40337 -2.17192 1622 ft 144 kts 230°
2026-04-24 14:04 53.39710 -2.18496 1441 ft 143 kts 230°
2026-04-24 14:05 53.39087 -2.19797 1255 ft 143 kts 230°
2026-04-24 14:05 53.38472 -2.21080 1060 ft 143 kts 230°
2026-04-24 14:05 53.37852 -2.22375 839 ft 142 kts 230°
2026-04-24 14:05 53.37218 -2.23675 649 ft 142 kts 230°
2026-04-24 14:06 53.36600 -2.24942 465 ft 142 kts 232°
2026-04-24 14:06 53.35980 -2.26235 280 ft 141 kts 231°
2026-04-24 14:06 53.35426 -2.27387 260 ft 99 kts 231°
2026-04-24 14:06 53.35158 -2.27943 242 ft 41 kts 231°
2026-04-24 14:07 53.35002 -2.28298 238 ft 36 kts 243°
2026-04-24 14:07 53.34953 -2.28543 234 ft 5 kts 259°
2026-04-24 14:07 53.34948 -2.28591 236 ft 0 kts 260°
2026-04-24 14:07 53.34946 -2.28606 234 ft 3 kts 260°
2026-04-24 14:08 53.34941 -2.28663 232 ft 5 kts 264°
2026-04-24 14:08 53.34956 -2.28723 233 ft 1 kts 309°
2026-04-24 14:08 53.34958 -2.28726 232 ft 1 kts 310°
2026-04-24 14:09 53.35012 -2.28737 231 ft 12 kts 25°
2026-04-24 14:09 53.35061 -2.28652 233 ft 9 kts 51°
2026-04-24 14:09 53.35095 -2.28582 232 ft 7 kts 51°
2026-04-24 14:09 53.35131 -2.28509 231 ft 9 kts 51°
2026-04-24 14:10 53.35156 -2.28458 230 ft 8 kts 52°
2026-04-24 14:10 53.35208 -2.28348 233 ft 11 kts 51°
2026-04-24 14:10 53.35246 -2.28272 234 ft 6 kts 47°
2026-04-24 14:10 53.35270 -2.28240 236 ft 3 kts 32°
2026-04-24 14:11 53.35283 -2.28228 239 ft 4 kts 25°
2026-04-24 14:11 53.35337 -2.28187 237 ft 11 kts 25°
2026-04-24 14:11 53.35488 -2.28129 239 ft 21 kts 25°
2026-04-24 14:12 53.35587 -2.27980 243 ft 15 kts 52°
2026-04-24 14:12 53.35637 -2.27899 247 ft 9 kts 25°
2026-04-24 14:12 53.35746 -2.27875 247 ft 17 kts
2026-04-24 14:12 53.35798 -2.27866 247 ft 0 kts
2026-04-24 14:13 53.35812 -2.27863 247 ft 10 kts
2026-04-24 14:13 53.35905 -2.27847 247 ft 15 kts
2026-04-24 14:14 53.35996 -2.27886 247 ft 13 kts 320°
2026-04-24 14:14 53.36039 -2.27955 247 ft 13 kts 315°
2026-04-24 14:14 53.36155 -2.28141 247 ft 10 kts 331°
2026-04-24 14:15 53.36216 -2.28136 247 ft 8 kts 14°
2026-04-24 14:15 53.36263 -2.28163 247 ft 7 kts 327°
2026-04-24 14:15 53.36304 -2.28228 247 ft 10 kts 314°
2026-04-24 14:15 53.36350 -2.28305 247 ft 9 kts 315°
2026-04-24 14:16 53.36388 -2.28375 247 ft 8 kts 307°
2026-04-24 14:16 53.36418 -2.28458 247 ft 8 kts 301°
2026-04-24 14:16 53.36448 -2.28544 247 ft 9 kts 300°
2026-04-24 14:17 53.36555 -2.28716 247 ft 16 kts 315°
2026-04-24 14:17 53.36617 -2.28781 247 ft 8 kts
2026-04-24 14:17 53.36689 -2.28799 247 ft 3 kts 321°
2026-04-24 14:18 53.36704 -2.28823 247 ft 2 kts 314°
2026-04-24 14:18 53.36714 -2.28840 247 ft 2 kts 315°
2026-04-24 14:18 53.36720 -2.28850 247 ft 1 kts 315°
2026-04-24 14:18 53.36722 -2.28854 247 ft 0 kts 315°